This is the latest recevied weather packets stored in our database for station/object KB3GVC-13. If no packets are shown the sender has not sent any weather packets the latest 10 day(s).
| Time | Temp. | Humidity | Pressure | Rain* | Wind** | Luminosity | Snow |
|---|---|---|---|---|---|---|---|
| 1777288541 | 3.89° C | 99% | 1024.7 hPa | 0 mm | - | - | - |
| 1777288237 | 3.33° C | 99% | 1024.8 hPa | 0 mm | - | - | - |
| 1777287933 | 3.33° C | 99% | 1024.8 hPa | 0 mm | - | - | - |
| 1777287631 | 2.78° C | 99% | 1024.7 hPa | 0 mm | - | - | - |
| 1777287326 | 2.78° C | 99% | 1024.5 hPa | 0 mm | - | - | - |
| 1777287023 | 2.78° C | 99% | 1024.4 hPa | 0 mm | - | - | - |
| 1777286720 | 2.78° C | 99% | 1024.3 hPa | 0 mm | - | - | - |
| 1777286418 | 2.22° C | 99% | 1024.2 hPa | 0 mm | - | - | - |
| 1777286115 | 2.22° C | 99% | 1024.3 hPa | 0 mm | - | - | - |
| 1777285812 | 2.22° C | 99% | 1024.2 hPa | 0 mm | - | - | - |
| 1777285509 | 1.67° C | 99% | 1024.4 hPa | 0 mm | - | - | - |
| 1777285207 | 1.11° C | 99% | 1024.1 hPa | 0 mm | - | - | - |
| 1777284904 | 1.11° C | 99% | 1024 hPa | 0 mm | - | - | - |
| 1777284601 | 1.67° C | 99% | 1024.2 hPa | 0 mm | - | - | - |
| 1777284297 | 1.67° C | 99% | 1024 hPa | 0 mm | - | - | - |
| 1777283994 | 2.22° C | 99% | 1024 hPa | 0 mm | - | - | - |
| 1777283690 | 2.22° C | 99% | 1024 hPa | 0 mm | - | - | - |
| 1777283390 | 2.22° C | 99% | 1024 hPa | 0 mm | - | - | - |
| 1777283088 | 2.22° C | 99% | 1023.9 hPa | 0 mm | - | - | - |
| 1777282783 | 2.22° C | 99% | 1024 hPa | 0 mm | - | - | - |
| 1777282479 | 1.67° C | 99% | 1023.8 hPa | 0 mm | - | - | - |
| 1777282177 | 2.22° C | 99% | 1023.9 hPa | 0 mm | - | - | - |
| 1777281874 | 1.67° C | 99% | 1023.9 hPa | 0 mm | - | - | - |
| 1777281572 | 2.22° C | 99% | 1023.9 hPa | 0 mm | - | - | - |
| 1777281268 | 2.22° C | 99% | 1023.7 hPa | 0 mm | - | - | - |
* Rain latest hour (hover to see other rain measurements)
** Current wind speed in m/s (hover to see current wind gust speed)